Regional Weather Roundup
Issued by NWS

Home | Current Version | Previous Version | Graphics & Text | Print | Product List | Glossary On
Versions: 1 2 3 4 5 6 7 8 9 10 11 12 13 14 15 16 17 18 19 20 21 22 23 24 25 26 27 28 29 30 31 32 33 34 35 36 37 38 39 40 41 42 43 44 45 46 47 48 49 50
949
ASUS43 KMPX 241010
RWRMN
WEATHER ROUNDUP FOR MINNESOTA
NATIONAL WEATHER SERVICE TWIN CITIES/CHANHASSEN MN
500 AM CDT MON APR 24 2017


NOTE: "FAIR" INDICATES FEW OR NO CLOUDS BELOW 12,000 FEET WITH NO
SIGNIFICANT WEATHER AND/OR OBSTRUCTIONS TO VISIBILITY. N/A MEANS
CURRENT SKY AND/OR WEATHER CONDITIONS ARE NOT AVAILABLE.

MNZ060>063-068>070-241100-
   Twin Cities Metro

CITY           SKY/WX    TMP DP  RH WIND       PRES   REMARKS
TWIN CITIES    PTCLDY    55  33  43 S9        29.82F
ST PAUL        CLEAR     47  43  86 CALM      29.84F
CRYSTAL        PTCLDY    41  35  79 CALM      29.80F
BLAINE         PTCLDY    43  39  87 CALM      29.82F
LAKEVILLE      PTCLDY    52  34  50 S9        29.82F
EDEN PRAIRIE   PTCLDY    53  35  50 S5        29.80F
SOUTH ST PAUL  PTCLDY    46  39  78 CALM      29.83S
LAKE ELMO      FAIR      46  37  71 E7        29.84F
$$
MNZ001>005-007-008-013>017-022>024-027-028-241100-
   Northwest Minnesota

CITY           SKY/WX    TMP DP  RH WIND       PRES   REMARKS
BEMIDJI        CLOUDY    33  27  79 E20G26    29.80F WCI  22
HALLOCK        CLOUDY    34  27  75 E18       29.85F WCI  23
ROSEAU         CLOUDY    34  28  80 E23       29.87F WCI  22
WARROAD        FLURRIES  34  28  80 E17G25    29.91F WCI  23
THIEF RVR FALL CLOUDY    33  30  88 E18G24    29.79F WCI  22
CROOKSTON      CLOUDY    36  30  80 E16G24    29.78F
FOSSTON        CLOUDY    34  27  75 E14G23    29.77F WCI  24
DETROIT LAKES  CLOUDY    34  28  80 SE14G22   29.73F WCI  24
MOORHEAD       CLOUDY    36  28  75 E9        29.70F
PARK RAPIDS    CLOUDY    33  23  66 E10       29.77F WCI  25
MAHNOMEN       PTSUNNY   33  28  83 E15G21    29.73F WCI  23
$$
MNZ006-009>011-018-025>026-241100-
   North Central Minnesota

CITY           SKY/WX    TMP DP  RH WIND       PRES   REMARKS
BAUDETTE       FLURRIES  31  28  89 E16G23    29.91F WCI  20
FLAG ISLAND    CLOUDY    34  14  44 E12       29.94F WCI  25
INTL FALLS     LGT SNOW  32  29  88 E14       29.94F FOG     WCI  22
WASKISH        CLOUDY    32  30  93 E12G17    29.87F WCI  23
BIG FORK       CLOUDY    30  27  86 E7        29.89F WCI  23
LONGVILLE      CLOUDY    32  25  74 E5        29.82F WCI  27
GRAND RAPIDS   CLOUDY    31  25  78 SE7       29.88F WCI  24
CRANE LAKE     FLURRIES  28  27  93 E3        29.99F
ORR            CLOUDY    28  25  86 MISG      29.91F
COOK           CLOUDY    28  27  93 E6        29.94F WCI  22
WALKER         CLOUDY    32  26  76 E14G20    29.81F WCI  22
$$
MNZ012-019>021-037-241100-
   Northeast Minnesota

CITY           SKY/WX    TMP DP  RH WIND       PRES   REMARKS
DULUTH         CLOUDY    31  27  85 E29G39    29.91F WCI  16
ELY            CLOUDY    28  25  86 E9G20     29.96F WCI  20
HIBBING        CLOUDY    30  23  75 E13       29.90F WCI  20
EVELETH        CLOUDY    32  21  64 E9        29.92F WCI  24
DULUTH HARBOR  CLOUDY    37  32  81 NE25      29.97F
TWO HARBORS    CLOUDY    34  28  80 E17G26    29.96S WCI  23
SILVER BAY     CLOUDY    30  27  86 NE12G20   29.98F WCI  21
GRAND MARAIS     N/A     32  26  78 NE14G21   30.07F WCI  22
G MARAIS ARPRT CLOUDY    25  19  80 NE13G18   30.02F WCI  13
$$
MNZ029>031-032-039>041-046>048-054>057-064-241100-
   West Central Minnesota

CITY           SKY/WX    TMP DP  RH WIND       PRES   REMARKS
FERGUS FALLS   CLOUDY    37  30  75 E16       29.68F
WHEATON        CLOUDY    43  36  75 E16       29.67F
MORRIS         CLOUDY    41  36  81 SE10      29.68F
ALEXANDRIA     PTCLDY    35  32  88 E14       29.74F WCI  26
ELBOW LAKE     FAIR      38  35  87 SE17      29.69F
WADENA         CLOUDY    32  27  80 E9G16     29.75F WCI  24
GLENWOOD       CLOUDY    36  34  93 E14       29.74F
APPLETON       MOCLDY    46  37  71 E8        29.67F
BENSON         CLOUDY    46  34  61 SE10      29.71F
ORTONVILLE     CLOUDY    46  37  71 SE10      29.65F
MADISON        CLOUDY    57  36  44 S10       29.66F
WILLMAR        FAIR      46  37  71 E12       29.75F
$$
MNZ033>034-036-042>043-049>051-058-059-241100-
   Central Minnesota

CITY           SKY/WX    TMP DP  RH WIND       PRES   REMARKS
ST CLOUD       MOCLDY    36  33  89 E6        29.80F
SAUK CENTRE    FAIR      35  32  90 E12G17    29.76F WCI  26
PAYNESVILLE    MOCLDY    39  35  84 E6        29.77F
AITKIN         CLOUDY    36  27  69 E8        29.82F
PINE RIVER     CLOUDY    32  27  80 E7        29.85F WCI  26
BRAINERD       CLOUDY    33  28  81 E6        29.81F WCI  28
STAPLES        CLOUDY    32  27  80 E7        29.78F WCI  26
LONG PRAIRIE   FAIR      34  32  93 NE8       29.77F WCI  27
LITTLE FALLS   CLOUDY    34  30  86 E3        29.79F
LITCHFIELD     MOCLDY    43  39  87 E6        29.78F
BUFFALO        CLOUDY    40  36  86 NE3       29.81F
MAPLE LAKE     CLOUDY    40  38  89 E6        29.81F
HUTCHINSON     CLOUDY    47  38  72 SE6       29.79S
$$
MNZ037-044-045-052-053-241100-
   East Central Minnesota

CITY           SKY/WX    TMP DP  RH WIND       PRES   REMARKS
PRINCETON      PTCLDY    37  34  87 NE9       29.82F
MORA           PTCLDY    34  30  86 E7        29.87S WCI  28
CAMBRIDGE      MOCLDY    39  30  70 CALM      29.82S
RUSH CITY      PTCLDY    36  32  84 NE7       29.85F
MOOSE LAKE     PTCLDY    34  28  80 E7        29.87F WCI  28
HINCKLEY       FAIR      36  32  87 NE8       29.87F
CLOQUET        PTCLDY    34  27  75 E17       29.89F WCI  23
MCGREGOR       PTCLDY    34  28  80 E14G20    29.85F WCI  24
$$
MNZ071>073-080-081-089-090-097-098-241100-
   Southwest Minnesota

CITY           SKY/WX    TMP DP  RH WIND       PRES   REMARKS
MONTEVIDEO     CLOUDY    46  36  66 S7        29.69F
GRANITE FALLS  MOCLDY    52  36  54 SE9       29.72F
CANBY          CLOUDY    58  33  39 SW21G31   29.66F
MARSHALL       CLOUDY    55  33  43 S23G29    29.68F
REDWOOD FALLS  CLOUDY    51  33  50 SE12      29.73F
OLIVIA         MOCLDY    50  34  53 SE9       29.73F
PIPESTONE      CLOUDY    48  30  49 S10       29.71S
WINDOM         MOCLDY    54  32  43 S13       29.76F
WORTHINGTON    CLOUDY    52  34  50 S15       29.75F
JACKSON        PTCLDY    50  32  50 S14       29.78F
TRACY          CLOUDY    55  35  45 S17G23    29.72F
SLAYTON        CLOUDY    51  34  51 S15       29.73F
$$
MNZ065>067-074>077-082>085-091>093-241100-
   South Central Minnesota

CITY           SKY/WX    TMP DP  RH WIND       PRES   REMARKS
MANKATO        PTCLDY    52  34  50 S8        29.81F
NEW ULM        MOCLDY    52  34  50 S10       29.78S
ST JAMES       CLOUDY    52  36  54 S13       29.79F
FAIRMONT       PTCLDY    49  34  56 S15       29.81F
GLENCOE        PTCLDY    52  38  60 SE5       29.78F
FARIBAULT      MOCLDY    52  36  54 S6        29.84F
OWATONNA       PTCLDY    52  34  50 S10       29.84F
WASECA         CLOUDY    52  32  46 S12       29.84F
ALBERT LEA     CLOUDY    48  32  53 S9        29.85F
$$
MNZ078>079-086>088-094>096-241100-
   Southeast Minnesota

CITY           SKY/WX    TMP DP  RH WIND       PRES   REMARKS
ROCHESTER      PTCLDY    48  34  58 S12       29.87F
RED WING       PTCLDY    52  30  43 CALM      29.85S
STANTON        CLOUDY    52  35  52 S7        29.83S
DODGE CENTER   PTCLDY    48  36  61 S10       29.86S
WINONA         CLEAR     48  43  81 SE7       29.92S
AUSTIN         PTCLDY    48  34  57 S7        29.86F
PRESTON        CLEAR     46  32  57 S3        29.89F
$$
ABBREVIATIONS USED IN REMARKS
   TC - TEMPERATURES IN CELSIUS
  WCI - WIND CHILL INDEX
   HX - HEAT INDEX
  VSB - VISIBILITY
$$




USA.gov is the U.S. government's official web portal to all federal, state and local government web resources and services.